Wind_Speed
13 12 11 11 11 10 10 11 12 13 13 13 13 12 11 11 11 11 10 8 8 7 6 5 5 5 5 4 4 4 5 6 7 7 7 8 9 8 8 9 9 9 10 10
13 13 12 12 11 11 11 11 11 10 10 11 12 10 9 10 10 9 9 7 7 5 5 4 4 3 4 3 3 4 4 4 5 6 5 5 6 7 7 8 8 8 9 9
14 13 13 11 12 12 12 12 10 9 9 9 10 9 9 10 10 10 9 7 6 5 3 3 3 2 2 1 2 2 2 3 4 4 5 5 5 5 5 6 7 7 8 8
15 15 15 13 13 12 12 10 10 10 9 8 9 10 10 10 9 9 8 7 5 4 2 2 2 1 1 1 1 1 1 2 3 4 4 4 3 4 4 5 5 6 6 6
15 15 16 16 15 14 12 11 11 10 10 10 10 10 12 11 10 8 6 5 3 3 2 2 2 1 1 1 1 0 0 1 1 2 2 2 2 3 3 3 4 5 5 5
16 17 17 17 16 16 14 12 12 12 12 12 9 9 12 10 9 8 6 4 2 2 1 1 2 2 2 2 2 2 2 3 3 2 2 1 0 1 1 2 2 3 4 4
16 17 17 17 17 15 14 12 13 12 10 10 8 9 11 9 8 8 7 4 3 2 1 0 1 1 2 2 2 3 3 3 3 3 2 2 1 1 2 2 2 3 3 4
15 16 17 18 18 15 13 12 13 13 12 12 10 8 7 8 7 8 7 5 3 3 2 1 1 1 1 1 1 2 2 2 2 2 2 2 1 2 2 2 2 3 4 5
18 18 19 19 17 15 14 13 12 13 14 13 10 8 6 5 6 6 6 5 4 4 3 2 2 1 0 1 1 1 1 1 1 1 1 1 1 1 2 2 3 4 4 5
20 20 18 17 16 14 13 13 12 13 14 11 9 8 7 5 6 5 6 5 4 4 4 3 3 2 2 2 1 1 1 1 1 1 1 1 1 2 2 3 4 4 5 6
22 22 20 17 15 15 15 15 15 14 15 12 11 10 9 8 7 6 5 5 5 5 4 4 4 4 3 3 2 2 2 2 2 2 2 2 3 3 3 4 4 5 6 7
21 23 23 21 19 19 18 17 16 16 15 13 12 12 9 8 8 6 7 6 6 6 6 5 5 5 5 4 4 4 3 3 3 3 3 3 4 4 4 5 5 6 7 8
24 26 25 23 23 22 20 19 17 16 15 14 12 12 11 9 8 8 9 8 8 7 7 6 6 6 6 6 6 5 5 5 5 5 5 5 5 6 6 6 7 8 8 9
25 26 26 24 23 24 22 21 18 17 17 16 14 13 12 10 10 11 11 9 9 9 8 8 7 7 7 7 6 6 6 6 6 6 6 7 7 7 8 8 8 9 10 10
26 27 27 27 27 24 21 18 18 19 17 16 15 15 15 12 12 13 12 11 11 11 9 9 9 9 8 8 8 8 8 8 8 8 8 8 8 9 9 9 10 10 11 12
26 26 27 27 26 22 20 18 16 16 15 16 17 17 17 16 15 15 15 14 14 13 11 10 10 10 10 9 9 9 9 9 9 9 9 9 10 10 11 11 11 12 12 13
26 25 25 24 25 24 20 18 17 16 15 17 18 20 19 16 15 15 15 15 15 14 13 12 11 11 11 11 10 10 10 11 11 11 11 11 11 12 12 13 13 14 14 15
27 25 24 23 24 24 18 17 18 16 18 19 21 21 20 19 18 18 18 17 16 15 14 14 13 12 12 12 12 12 12 12 12 12 13 13 13 13 14 15 15 16 16 17
25 25 25 25 25 24 21 18 18 20 21 21 21 20 22 21 20 19 18 18 17 16 15 15 15 14 14 13 13 13 13 14 14 14 14 14 15 15 16 16 17 17 18 19
24 26 27 25 26 25 22 19 20 20 21 21 22 23 23 22 21 20 19 19 18 17 16 17 16 15 15 15 15 15 15 15 16 16 16 16 16 17 18 18 19 19 20 20
23 24 26 26 25 24 20 21 22 20 19 20 22 22 22 22 22 21 21 20 18 17 18 18 17 17 17 17 16 17 17 17 17 17 18 18 18 19 19 20 20 21 21 22
23 25 25 24 26 25 22 19 20 20 20 21 21 20 20 21 21 21 21 21 19 19 19 18 18 18 18 18 18 19 19 19 19 19 20 20 20 21 21 21 22 23 23 24
20 20 22 23 23 23 23 22 19 18 19 20 21 21 21 20 20 21 21 21 20 20 19 19 19 19 20 20 20 20 20 20 21 21 21 22 22 22 22 22 23 24 25 26
18 19 21 22 23 23 24 23 21 19 20 20 20 21 21 21 21 21 21 21 21 21 20 20 20 20 21 21 22 22 22 22 22 22 23 23 23 23 23 24 25 26 26 27
18 19 21 22 22 22 23 23 22 22 23 23 21 21 21 21 21 21 21 21 21 21 21 21 21 21 21 22 23 23 23 22 23 23 24 24 24 25 25 26 27 28 29 29
21 22 23 23 24 24 24 24 24 24 23 22 22 22 22 22 22 22 22 21 21 21 22 22 22 22 23 24 24 24 24 24 24 24 24 25 25 26 27 28 28 29 29 30
Wind_Direction
266 266 274 279 278 280 282 281 282 288 296 297 304 315 321 322 318 319 320 319 319 316 308 307 303 299 290 269 254 242 239 238 237 238 242 244 248 253 255 260 263 265 270 275
261 263 262 259 263 269 271 271 275 287 295 298 303 316 323 323 320 319 323 324 326 322 313 306 302 301 304 279 251 249 246 242 239 234 236 244 251 257 263 267 270 275 280 282
259 265 262 260 262 262 266 274 282 291 289 291 303 310 316 317 320 318 325 327 325 327 323 322 306 296 303 283 246 254 242 231 234 238 238 242 252 261 265 272 279 282 286 286
250 250 254 256 257 261 267 275 276 279 276 283 298 305 308 309 310 314 320 324 327 336 337 331 332 318 308 298 281 258 242 227 232 237 237 234 249 271 277 290 292 290 291 292
239 243 247 251 254 255 257 265 266 264 266 270 277 289 295 296 304 308 312 318 323 345 10 20 32 65 70 68 81 77 170 187 183 198 208 229 251 279 288 296 299 300 302 304
234 236 241 246 251 253 257 257 255 256 258 264 279 285 288 291 308 313 313 304 312 319 356 49 69 85 83 80 89 92 106 127 137 145 138 131 140 319 313 316 316 313 315 315
239 235 239 244 248 250 254 259 268 281 281 281 283 277 288 297 304 303 310 302 304 292 268 221 99 93 84 89 96 99 109 109 105 99 96 95 70 21 353 341 339 336 334 329
241 244 242 242 245 247 251 253 258 270 283 281 276 263 283 303 301 294 289 286 271 261 244 225 194 132 105 105 117 122 112 106 101 91 74 65 30 356 345 338 339 341 340 336
239 244 244 245 243 241 245 246 249 260 269 280 276 257 246 271 289 293 281 274 256 246 235 226 213 203 200 179 159 157 157 141 133 120 82 45 353 337 334 327 322 326 332 335
234 239 241 242 235 235 242 248 245 251 265 277 283 260 251 269 292 294 287 277 256 247 244 244 239 241 236 228 230 224 201 210 220 239 307 311 302 312 322 324 323 325 329 332
228 235 241 242 244 236 236 232 230 238 251 267 275 279 278 281 278 282 280 276 261 249 247 247 252 252 248 245 246 249 240 235 242 261 277 281 287 295 307 315 319 322 325 329
228 234 237 239 241 239 238 234 233 237 241 249 263 271 277 290 287 288 276 268 264 254 250 250 254 258 257 254 256 257 257 254 256 262 272 284 291 296 302 310 315 319 323 326
231 230 231 234 236 231 228 227 232 237 243 241 254 270 273 276 281 285 272 265 265 260 258 258 260 262 260 257 257 259 260 259 261 266 273 280 287 294 299 302 307 311 317 321
230 231 231 234 235 230 224 215 219 231 238 241 243 255 269 275 278 282 275 263 263 260 261 263 264 264 260 257 259 263 263 262 263 267 274 279 284 290 293 296 301 307 312 314
235 235 235 235 239 241 228 215 216 227 235 239 243 250 260 265 261 265 271 269 265 261 259 264 263 264 264 263 266 270 268 266 267 269 275 281 285 287 290 293 297 302 307 310
236 233 231 235 240 240 232 222 220 221 229 241 250 256 256 258 259 259 266 271 267 263 255 261 262 263 265 267 269 270 271 271 269 270 274 280 284 287 289 292 295 298 302 306
233 234 233 232 236 238 236 229 229 227 227 234 240 250 251 256 262 263 267 270 264 258 257 260 262 265 265 264 267 270 270 272 273 273 274 278 283 286 288 289 292 296 300 303
235 232 233 233 231 235 229 221 222 224 230 234 237 243 251 255 260 264 267 269 265 258 255 255 257 261 264 266 267 269 271 274 274 275 276 278 281 284 286 287 290 293 297 300
232 234 235 235 233 233 225 221 225 224 229 234 238 244 250 256 262 263 262 263 263 259 256 255 257 259 261 263 266 268 271 275 277 277 277 279 281 284 286 288 290 292 295 298
230 232 234 234 235 237 226 221 229 227 233 240 243 245 248 252 255 256 256 258 258 257 258 258 258 260 262 264 266 268 270 273 277 278 277 279 280 282 285 287 289 291 294 296
231 231 232 233 236 241 237 227 226 231 236 239 243 246 246 248 250 252 255 258 260 260 261 260 260 261 262 264 267 268 270 273 276 277 277 277 279 282 284 286 287 290 293 295
228 231 232 233 233 237 238 234 227 229 237 242 245 247 247 249 250 252 256 260 260 261 262 263 264 264 263 265 268 270 273 274 276 278 278 278 280 282 283 286 288 290 293 295
229 230 233 234 234 237 238 240 239 233 239 245 248 250 251 253 252 253 254 256 258 259 260 262 264 263 263 266 269 272 273 275 276 277 279 280 280 281 281 284 288 290 292 294
231 233 237 235 233 235 238 242 246 247 246 247 250 251 252 254 253 253 254 256 256 257 258 260 262 263 265 267 269 272 274 276 276 276 277 278 279 280 282 286 288 290 291 293
238 236 235 238 238 237 238 241 242 247 249 247 249 252 252 253 252 253 257 258 256 255 256 261 263 264 266 268 269 271 273 275 277 277 278 278 279 281 283 285 286 289 291 292
241 238 237 238 238 241 243 243 245 246 248 250 251 251 252 253 252 254 257 259 259 258 258 261 264 266 267 269 270 271 272 275 277 278 277 278 279 280 281 283 285 287 290 292
Height
5858 5860 5860 5862 5862 5863 5863 5863 5862 5861 5859 5857 5855 5853 5851 5849 5847 5846 5845 5844 5843 5842 5842 5841 5841 5841 5840 5841 5843 5843 5845 5846 5847 5849 5851 5852 5853 5854 5855 5857 5857 5858 5859 5859
5855 5856 5858 5858 5860 5861 5861 5860 5859 5859 5857 5855 5854 5852 5850 5848 5847 5845 5844 5843 5842 5842 5841 5841 5841 5841 5841 5841 5842 5843 5844 5845 5846 5848 5849 5850 5851 5853 5854 5855 5855 5856 5856 5857
5851 5854 5854 5855 5857 5858 5858 5858 5857 5856 5856 5854 5853 5851 5849 5848 5846 5845 5844 5843 5842 5841 5841 5841 5841 5841 5841 5841 5842 5843 5844 5845 5846 5847 5848 5850 5851 5852 5852 5853 5853 5854 5854 5854
5847 5850 5851 5852 5854 5855 5855 5855 5855 5854 5854 5852 5852 5850 5848 5847 5846 5845 5843 5842 5841 5841 5841 5841 5841 5841 5842 5842 5842 5843 5843 5844 5845 5847 5848 5849 5850 5851 5852 5852 5852 5853 5853 5853
5843 5846 5848 5849 5851 5852 5852 5853 5852 5852 5851 5850 5848 5848 5847 5845 5844 5843 5843 5842 5841 5841 5841 5841 5841 5842 5842 5842 5842 5843 5843 5844 5845 5846 5847 5848 5849 5850 5851 5851 5851 5851 5852 5852
5839 5843 5844 5846 5847 5848 5849 5849 5848 5847 5847 5846 5845 5846 5845 5841 5843 5843 5841 5841 5842 5842 5842 5842 5842 5842 5843 5843 5843 5843 5844 5845 5846 5846 5847 5848 5849 5850 5850 5850 5851 5851 5851 5851
5835 5837 5840 5842 5843 5845 5846 5847 5846 5844 5843 5842 5843 5844 5843 5841 5842 5842 5842 5841 5842 5842 5842 5842 5843 5843 5843 5843 5844 5844 5845 5845 5846 5846 5847 5848 5849 5849 5850 5850 5851 5851 5851 5850
5831 5834 5835 5837 5839 5841 5842 5844 5844 5844 5842 5841 5840 5840 5842 5841 5840 5841 5841 5841 5842 5842 5842 5843 5843 5843 5843 5844 5844 5845 5845 5846 5846 5847 5848 5848 5849 5849 5850 5850 5850 5850 5850 5850
5828 5829 5831 5832 5834 5837 5839 5840 5842 5842 5840 5839 5837 5838 5838 5839 5840 5840 5841 5841 5841 5842 5842 5842 5843 5843 5843 5844 5844 5845 5845 5846 5847 5847 5848 5848 5849 5849 5850 5850 5850 5850 5850 5849
5823 5824 5825 5826 5830 5833 5836 5838 5839 5839 5838 5837 5836 5834 5834 5836 5839 5840 5840 5840 5840 5841 5841 5842 5842 5843 5843 5844 5844 5845 5845 5846 5847 5847 5848 5848 5849 5849 5849 5850 5850 5849 5849 5848
5819 5820 5822 5823 5826 5829 5832 5834 5835 5836 5837 5836 5835 5836 5834 5835 5837 5838 5839 5840 5840 5840 5841 5841 5842 5842 5843 5843 5844 5844 5845 5846 5846 5847 5847 5848 5848 5849 5849 5849 5849 5848 5848 5847
5813 5816 5817 5820 5823 5824 5827 5829 5831 5833 5833 5834 5833 5835 5833 5833 5835 5836 5838 5839 5839 5839 5840 5840 5841 5841 5842 5842 5843 5844 5844 5845 5845 5846 5846 5847 5848 5848 5848 5848 5848 5847 5847 5846
5808 5810 5813 5816 5819 5820 5821 5824 5827 5829 5831 5831 5832 5834 5831 5832 5832 5834 5836 5837 5838 5838 5838 5839 5840 5840 5841 5841 5842 5843 5843 5844 5844 5845 5845 5846 5846 5847 5847 5846 5846 5846 5845 5845
5802 5805 5809 5811 5810 5812 5815 5818 5822 5826 5827 5828 5829 5829 5828 5830 5831 5832 5833 5834 5836 5836 5837 5838 5838 5839 5839 5840 5841 5841 5842 5842 5843 5843 5844 5844 5845 5845 5845 5845 5844 5844 5843 5843
5797 5800 5803 5805 5805 5806 5809 5812 5816 5821 5824 5825 5825 5825 5826 5826 5828 5829 5831 5832 5833 5834 5834 5836 5837 5837 5838 5838 5839 5839 5840 5840 5841 5841 5842 5842 5842 5843 5843 5842 5842 5842 5841 5840
5792 5794 5798 5800 5801 5803 5806 5809 5812 5816 5819 5822 5823 5824 5823 5823 5824 5826 5828 5829 5830 5831 5831 5833 5834 5835 5835 5836 5836 5837 5837 5838 5838 5839 5839 5840 5840 5840 5840 5840 5839 5839 5838 5837
5786 5790 5793 5795 5798 5799 5803 5806 5810 5812 5816 5818 5820 5820 5819 5820 5821 5822 5824 5826 5827 5828 5829 5830 5831 5832 5833 5833 5834 5834 5835 5835 5836 5836 5836 5837 5837 5837 5836 5836 5836 5835 5835 5834
5782 5784 5788 5791 5794 5796 5802 5802 5804 5807 5810 5812 5814 5816 5816 5817 5818 5820 5821 5822 5823 5825 5826 5827 5828 5829 5830 5830 5831 5831 5832 5832 5832 5833 5833 5833 5833 5833 5833 5832 5832 5831 5830 5829
5777 5780 5783 5786 5788 5791 5794 5797 5799 5801 5804 5806 5808 5810 5812 5813 5814 5816 5817 5818 5819 5821 5822 5823 5824 5825 5826 5827 5827 5828 5828 5828 5829 5829 5829 5829 5829 5829 5828 5828 5827 5827 5826 5825
5772 5774 5778 5781 5783 5784 5788 5791 5793 5796 5798 5800 5803 5805 5807 5809 5811 5812 5812 5813 5815 5816 5817 5818 5820 5821 5822 5823 5823 5824 5824 5824 5824 5825 5825 5825 5824 5824 5824 5823 5823 5822 5821 5819
5767 5770 5772 5775 5777 5778 5781 5785 5788 5792 5793 5794 5797 5799 5801 5803 5805 5807 5808 5809 5810 5812 5813 5814 5815 5816 5817 5818 5818 5819 5819 5819 5820 5820 5820 5819 5819 5819 5819 5818 5817 5816 5815 5814
5762 5765 5767 5769 5771 5776 5775 5778 5782 5784 5786 5789 5791 5794 5796 5798 5800 5801 5803 5805 5806 5807 5808 5809 5810 5811 5812 5813 5813 5814 5814 5814 5814 5814 5813 5813 5813 5813 5812 5812 5811 5810 5809 5808
5755 5759 5761 5765 5768 5770 5771 5773 5774 5777 5781 5784 5787 5789 5791 5793 5795 5796 5798 5800 5801 5802 5803 5804 5805 5806 5807 5807 5808 5808 5808 5808 5808 5808 5808 5808 5807 5806 5806 5805 5805 5804 5803 5801
5750 5754 5757 5759 5761 5764 5767 5769 5771 5773 5777 5780 5781 5783 5785 5787 5789 5791 5792 5794 5795 5796 5798 5799 5800 5801 5801 5802 5802 5802 5802 5802 5802 5801 5801 5801 5801 5800 5799 5798 5798 5797 5796 5794
5746 5750 5752 5754 5756 5758 5761 5764 5766 5769 5772 5774 5776 5778 5780 5782 5784 5785 5787 5788 5790 5791 5792 5793 5794 5795 5795 5796 5796 5796 5796 5796 5795 5795 5794 5794 5794 5793 5792 5791 5791 5790 5788 5786
5742 5745 5746 5748 5751 5754 5757 5759 5762 5764 5767 5768 5771 5773 5774 5776 5778 5780 5781 5782 5784 5785 5786 5787 5788 5788 5789 5789 5789 5789 5789 5789 5788 5788 5787 5787 5786 5786 5785 5784 5783 5781 5780 5778